Simultaneous Nadir Overpasses (SNOs) Predictions

Prediction of SNOs between GOES-14 and NOAA-20 Satellite Orbit:

Table of predicted SNOs for the next 14.0 days since TLE Epoch: 6/14/2024
Index Date Time (GOES-14) GOES-14 Lat,Lon NOAA-20 Lat,Lon Distance(km) Time Diff (sec)
1 06/15/2024 20:39:42 0.03,-108.54 -0.11,-109.06 59.06 80
2 06/16/2024 20:23:35 0.01,-108.54 0.91,-104.52 458.82 80
3 06/18/2024 08:42:39 -0.05,-108.56 0.23,-109.78 139.63 80
4 06/19/2024 08:26:32 -0.03,-108.55 -0.79,-105.24 377.48 80
5 06/20/2024 20:45:44 0.07,-108.52 -0.36,-110.54 229.97 80
6 06/21/2024 20:29:35 0.06,-108.51 0.60,-105.99 287.38 80
7 06/23/2024 08:48:40 -0.10,-108.53 0.52,-111.25 310.84 80
8 06/24/2024 08:32:32 -0.08,-108.52 -0.50,-106.72 205.97 80
9 06/25/2024 20:51:43 0.11,-108.47 -0.70,-112.00 402.71 80
10 06/26/2024 20:35:36 0.09,-108.47 0.32,-107.46 114.73 80
11 06/28/2024 08:54:40 -0.13,-108.49 0.79,-112.73 482.20 80
